User: anonymous   Login
Location: Bonny Doon Airfield
(37.0704°N, 122.1252°W)
Time: 08:53:21
(UTC-07:00)
Language:

nSIGHT-1 - Orbit

View from above orbital plane
View from above orbital plane
View from above satellite
View from above satellite

Ground track
Ground track

The orbit data is extracted from the following two-line orbital elements,

1 42726U 98067MF  18140.21536763  .00005966  00000-0  75337-4 0  9993
2 42726  51.6375 148.2618 0005525 119.1665 240.9882 15.61131284 56035
Epoch (UTC): 20 May 2018 05:10:07
Eccentricity: 0.0005525
inclination: 51.6375°
perigee height: 380 km
apogee height: 388 km
right ascension of ascending node: 148.2618°
argument of perigee: 119.1665°
revolutions per day: 15.61131284
mean anomaly at epoch: 240.9882°
orbit number at epoch: 5603

The dashed part of the orbit path shows where the satellite is in the earth's shadow,  

DLR